Location: Colle Santa Colomba
(42.0333°N, 12.5667°E)
Time: 22:11:01
(UTC+00:00)

FALCON 9 DEB - Pass Details

Date: 25 October 2021
Orbit: 343 x 353 km, 53.0° (Epoch: 04 December)

Event Time Altitude Azimuth Distance (km) Brightness Sun altitude
Rises 17:14:27 0° 206° (SSW) 2,156 7.1 -12.0°
Reaches altitude 10° 17:16:37 10° 193° (SSW) 1,323 5.8 -12.4°
Maximum altitude 17:19:09 26° 134° (SE) 759 4.0 -12.9°
Enters shadow 17:19:47 23° 111° (ESE) 810 4.0 -13.0°
